Weather History for Hazlehurst, GA

Change the Weather History Date:

Friday, November 23, 2012

  Actual Average Record
Temperature  
Mean Temperature 54 °F -  
Max Temperature 72 °F 64 °F 91 °F (2014)
Min Temperature 35 °F 37 °F 56 °F (2013)
Degree Days  
Heating Degree Days 12    
Growing Degree Days 4 (Base 50)    
Moisture  
Dew Point 42 °F    
Average Humidity 71    
Maximum Humidity 100    
Minimum Humidity 39    
Precipitation  
Precipitation 0.00 in - - ()
Sea Level Pressure  
Sea Level Pressure 30.12 in    
Wind  
Wind Speed 1 mph ()    
Max Wind Speed 7 mph    
Max Gust Speed -    
Visibility 9.8 miles    
Events      
Averages and records for this station are not official NWS values.
T = Trace of Precipitation, MM = Missing Value Source: Averaged Metar Reports

Daily Weather History Graph

Daily Weather History Graph

Search for Another Location

Airport:

Trip Planner

Search our weather history database for the weather conditions in past years. The results will help you decide how hot, cold, wet, or windy it might be!

Date:

Astronomy

Nov. 23, 2012 Rise Set
Actual Time 7:06 AM EST 5:27 PM EST
Civil Twilight 6:40 AM EST 5:53 PM EST
Nautical Twilight 6:10 AM EST 6:23 PM EST
Astronomical Twilight 5:41 AM EST 6:52 PM EST
Moon 2:29 PM EST (11/23) 2:38 AM EST (11/23)
Length of Visible Light 11h 13m
Length of Day
10h 21m
Waxing Gibbous, 79% of the Moon is Illuminated
Nov 23
Waxing Gibbous
Nov 28
Full
Dec 6
Last Quarter
Dec 13
New
Dec 20
First Quarter

Hourly Weather History & Observations

Time (EST) Temp. Dew Point Humidity Pressure Visibility Wind Dir Wind Speed Gust Speed Precip Events Conditions
12:15 AM 39.6 °F 39.7 °F 100% 30.19 in 10.0 mi Calm Calm - N/A   Clear
12:35 AM 39.6 °F 39.7 °F 100% 30.19 in 10.0 mi Calm Calm - N/A   Scattered Clouds
12:55 AM 39.2 °F 39.0 °F 99% 30.19 in 10.0 mi Calm Calm - N/A   Scattered Clouds
1:15 AM 39.2 °F 39.0 °F 99% 30.19 in 10.0 mi Calm Calm - N/A   Scattered Clouds
1:35 AM 39.0 °F 38.7 °F 99% 30.18 in 10.0 mi Calm Calm - N/A   Clear
1:55 AM 39.0 °F 39.0 °F 100% 30.18 in 10.0 mi Calm Calm - N/A   Clear
2:15 AM 38.7 °F 38.8 °F 100% 30.18 in 10.0 mi Calm Calm - N/A   Clear
2:35 AM 38.5 °F 38.7 °F 100% 30.18 in 10.0 mi Calm Calm - N/A   Clear
2:55 AM 37.4 °F 37.6 °F 100% 30.17 in 10.0 mi Calm Calm - N/A   Clear
3:15 AM 37.8 °F 37.9 °F 100% 30.17 in 10.0 mi Calm Calm - N/A   Scattered Clouds
3:35 AM 37.8 °F 37.9 °F 100% 30.17 in 10.0 mi Calm Calm - N/A   Clear
3:55 AM 37.4 °F 37.6 °F 100% 30.18 in 10.0 mi Calm Calm - N/A   Scattered Clouds
4:15 AM 37.2 °F 37.4 °F 100% 30.18 in 10.0 mi Calm Calm - N/A   Clear
4:35 AM 36.9 °F 36.9 °F 100% 30.18 in 10.0 mi Calm Calm - N/A   Clear
4:55 AM 36.7 °F 36.7 °F 100% 30.18 in 7.0 mi Calm Calm - N/A   Clear
5:15 AM 37.2 °F 37.4 °F 100% 30.19 in 10.0 mi Calm Calm - N/A   Clear
5:35 AM 36.9 °F 37.0 °F 100% 30.19 in 10.0 mi Calm Calm - N/A   Clear
5:55 AM 36.0 °F 36.1 °F 100% 30.19 in 10.0 mi Calm Calm - N/A   Clear
6:15 AM 36.0 °F 36.1 °F 100% 30.19 in 7.0 mi Calm Calm - N/A   Scattered Clouds
6:35 AM 35.8 °F 35.8 °F 100% 30.19 in 10.0 mi Calm Calm - N/A   Scattered Clouds
6:55 AM 35.8 °F 36.0 °F 100% 30.19 in 10.0 mi Calm Calm - N/A   Scattered Clouds
7:15 AM 36.0 °F 36.1 °F 100% 30.20 in 7.0 mi Calm Calm - N/A   Clear
7:35 AM 35.8 °F 36.0 °F 100% 30.20 in 10.0 mi Calm Calm - N/A   Scattered Clouds
7:55 AM - - N/A% 30.20 in 7.0 mi Calm Calm - N/A   Scattered Clouds
8:15 AM 38.8 °F 39.0 °F 100% 30.20 in 10.0 mi Calm Calm - N/A   Scattered Clouds
8:35 AM 42.8 °F 41.9 °F 97% 30.21 in 10.0 mi Calm Calm - N/A   Scattered Clouds
8:55 AM 46.2 °F 41.5 °F 84% 30.21 in 10.0 mi Calm Calm - N/A   Mostly Cloudy
9:15 AM 48.9 °F 40.5 °F 73% 30.22 in 10.0 mi Calm Calm - N/A   Scattered Clouds
9:35 AM 52.0 °F 41.0 °F 66% 30.21 in 10.0 mi Calm Calm - N/A   Scattered Clouds
9:55 AM 55.0 °F 41.0 °F 59% 30.21 in 10.0 mi WSW 3.5 mph - N/A   Scattered Clouds
10:15 AM 58.1 °F 41.5 °F 54% 30.21 in 10.0 mi WSW 3.5 mph - N/A   Mostly Cloudy
10:35 AM 60.8 °F 41.9 °F 50% 30.20 in 10.0 mi WSW 3.5 mph - N/A   Mostly Cloudy
10:55 AM 62.8 °F 41.9 °F 46% 30.19 in 10.0 mi WNW 3.5 mph - N/A   Mostly Cloudy
11:15 AM 63.9 °F 43.2 °F 47% 30.19 in 10.0 mi WNW 3.5 mph - N/A   Mostly Cloudy
11:35 AM 65.1 °F 44.4 °F 47% 30.17 in 10.0 mi NW 3.5 mph - N/A   Overcast
11:55 AM 66.6 °F 45.3 °F 46% 30.16 in 10.0 mi West 5.8 mph - N/A   Mostly Cloudy
12:15 PM 68.4 °F 45.5 °F 44% 30.14 in 10.0 mi West 4.6 mph - N/A   Mostly Cloudy
12:35 PM 69.8 °F 45.9 °F 42% 30.13 in 10.0 mi West 4.6 mph - N/A   Mostly Cloudy
12:55 PM 70.2 °F 46.0 °F 42% 30.12 in 10.0 mi SW 5.8 mph - N/A   Mostly Cloudy
1:15 PM 70.2 °F 45.9 °F 42% 30.10 in 10.0 mi WNW 4.6 mph - N/A   Mostly Cloudy
1:35 PM 71.1 °F 45.9 °F 40% 30.09 in 10.0 mi WNW 6.9 mph - N/A   Mostly Cloudy
1:55 PM 70.9 °F 46.0 °F 41% 30.08 in 10.0 mi WSW 5.8 mph - N/A   Scattered Clouds
2:15 PM 71.1 °F 46.4 °F 41% 30.07 in 10.0 mi WNW 5.8 mph - N/A   Clear
2:35 PM 72.0 °F 46.8 °F 41% 30.06 in 10.0 mi West 3.5 mph - N/A   Clear
2:55 PM 72.3 °F 46.8 °F 40% 30.06 in 10.0 mi WSW 4.6 mph - N/A   Clear
3:15 PM 71.8 °F 47.1 °F 41% 30.05 in 10.0 mi West 4.6 mph - N/A   Clear
3:35 PM 71.8 °F 46.8 °F 41% 30.05 in 10.0 mi WSW 6.9 mph - N/A   Clear
3:55 PM 71.6 °F 46.0 °F 40% 30.05 in 10.0 mi WSW 4.6 mph - N/A   Clear
4:15 PM 71.2 °F 45.1 °F 39% 30.05 in 10.0 mi West 4.6 mph - N/A   Clear
4:35 PM 70.0 °F 44.6 °F 40% 30.04 in 10.0 mi WSW 3.5 mph - N/A   Clear
4:55 PM 68.4 °F 45.0 °F 43% 30.04 in 10.0 mi Calm Calm - N/A   Clear
5:15 PM 66.0 °F 46.0 °F 48% 30.04 in 10.0 mi Calm Calm - N/A   Clear
5:35 PM 63.7 °F 46.4 °F 53% 30.04 in 10.0 mi Calm Calm - N/A   Clear
5:55 PM 60.8 °F 45.9 °F 58% 30.04 in 10.0 mi Calm Calm - N/A   Clear
6:15 PM 57.6 °F 45.9 °F 65% 30.05 in 10.0 mi Calm Calm - N/A   Clear
6:35 PM 55.4 °F 45.9 °F 70% 30.04 in 10.0 mi Calm Calm - N/A   Clear
6:55 PM 54.9 °F 45.3 °F 70% 30.05 in 10.0 mi Calm Calm - N/A   Clear
7:15 PM 54.9 °F 44.8 °F 69% 30.05 in 10.0 mi Calm Calm - N/A   Clear
7:35 PM 53.4 °F 45.0 °F 73% 30.05 in 10.0 mi Calm Calm - N/A   Clear
7:55 PM 53.2 °F 45.0 °F 73% 30.05 in 10.0 mi Calm Calm - N/A   Clear
8:15 PM 53.1 °F 44.2 °F 72% 30.05 in 10.0 mi Calm Calm - N/A   Clear
8:35 PM 54.5 °F 44.6 °F 69% 30.04 in 10.0 mi WSW 3.5 mph - N/A   Clear
8:55 PM 55.9 °F 44.8 °F 66% 30.04 in 10.0 mi WSW 3.5 mph - N/A   Clear
9:15 PM 56.7 °F 45.1 °F 65% 30.04 in 10.0 mi WSW 3.5 mph - N/A   Clear
9:35 PM 57.4 °F 45.1 °F 64% 30.04 in 10.0 mi SW 3.5 mph - N/A   Clear
9:55 PM 58.5 °F 45.1 °F 61% 30.04 in 10.0 mi WSW 3.5 mph - N/A   Clear
10:15 PM 58.6 °F 45.3 °F 61% 30.03 in 10.0 mi SW 3.5 mph - N/A   Clear
10:35 PM 58.6 °F 45.5 °F 62% 30.03 in 10.0 mi Calm Calm - N/A   Clear
10:55 PM 58.6 °F 45.7 °F 62% 30.03 in 10.0 mi WSW 3.5 mph - N/A   Clear
11:15 PM 58.3 °F 45.9 °F 63% 30.03 in 10.0 mi WSW 3.5 mph - N/A   Clear
11:35 PM 57.7 °F 45.9 °F 65% 30.03 in 10.0 mi Calm Calm - N/A   Scattered Clouds
11:55 PM 57.4 °F 46.0 °F 66% 30.03 in 10.0 mi West 3.5 mph - N/A   Scattered Clouds